Vertical_Velocity
-4 -1 3 2 2 -3 9 -7 22 -18 4 -8 1 3 -1 4 -3 2 -15 3 -0 -12 -1 15 1 6 14 2 0 1 5 4 -1 8 9 6 11 4 4 6 11 4 -7 -1
-5 -2 3 2 -2 0 -0 -4 1 1 -11 2 -3 -6 -7 -3 -2 -1 2 -2 -4 -0 -17 10 -7 -8 -5 -3 -6 -1 4 3 4 3 2 7 8 6 5 7 -1 -6 6 -1
-12 1 1 2 -9 -2 -4 -0 11 4 -2 0 -10 -3 -1 -7 0 3 0 4 -7 -5 -1 -5 -7 -4 8 -1 -5 -3 3 2 6 4 9 4 -3 2 2 5 6 -2 -7 -6
-7 6 9 -38 -1 1 5 -1 -2 -5 -2 4 5 -3 0 5 8 2 3 -2 -1 -0 -2 -4 -6 5 12 -0 -1 -3 1 2 7 2 3 3 6 7 5 4 -1 -5 -1 3
10 1 -15 -15 -4 1 12 -22 2 3 -3 -3 -5 -3 -13 1 3 -10 4 -1 -6 3 -9 -2 2 8 -7 3 3 1 10 2 5 5 4 0 1 -0 3 -3 -5 1 -3 -1
6 10 1 -11 -1 -1 5 -7 2 6 -0 2 -3 2 -3 -5 1 -4 7 -3 2 5 16 -8 -2 -1 1 -3 -1 -3 2 -1 7 6 7 3 4 -1 -3 -2 -2 2 4 6
-2 0 -13 -6 2 -1 13 -2 -1 5 2 1 6 4 2 5 6 -8 0 7 -2 0 7 -1 -7 -1 6 2 3 -2 0 6 -1 7 10 10 0 -2 -3 3 1 3 0 1
2 7 -16 2 -10 -0 8 -17 3 -4 -5 -1 -0 3 3 4 -7 6 3 -16 -10 9 1 7 -4 -5 1 5 -2 4 3 1 -0 0 2 4 1 3 5 2 0 2 1 -0
16 -4 -5 6 5 2 6 2 -8 6 -4 8 4 1 4 -3 2 -11 3 11 6 3 3 -4 7 1 1 2 -5 -6 -2 1 2 6 -6 1 2 2 9 -1 0 1 0 1
21 -21 -1 -3 -11 2 -1 1 1 7 2 4 4 -3 -2 -2 -1 -2 0 1 6 -4 8 7 -3 4 -4 0 5 0 2 2 6 2 1 2 3 7 -1 -3 -4 -1 -3 -3
-7 -6 -5 -9 -6 -0 -7 3 -3 3 3 7 2 -3 1 -3 -1 0 2 0 2 2 3 -1 5 8 -5 -6 -2 5 -0 2 2 -0 4 2 2 -1 0 6 2 -8 -1 -4
-6 -5 7 -10 -9 2 4 -1 5 2 -4 -3 2 0 1 1 1 3 -8 -3 7 7 4 -2 7 1 3 3 -2 -8 2 2 2 5 1 6 4 3 4 -0 1 1 -0 -3
-5 9 5 -8 -4 1 3 1 -1 5 -1 -1 -1 1 2 -2 0 -3 -0 2 1 4 -1 -3 1 7 -7 5 2 -4 1 -2 1 5 6 -0 1 -0 -5 5 6 4 -1 2
-11 -3 -7 5 -1 -2 2 2 -0 4 0 -4 1 -2 1 2 -0 -1 -3 -3 -1 2 2 -2 4 8 -4 2 4 1 3 3 2 -0 3 1 6 3 1 -1 -4 -1 8 2
6 1 3 1 -0 -2 -1 0 -1 -0 2 -0 -0 -0 -3 -3 -0 -3 -1 0 3 1 -2 -1 -2 -4 3 -4 -1 -0 3 2 3 1 2 5 3 3 1 2 1 -2 -1 4
-4 5 5 -1 -1 -0 -1 -1 1 -1 -3 -1 2 -1 1 3 -0 1 -0 2 -1 -3 -3 -4 -2 -6 10 5 0 4 3 2 1 2 5 2 1 1 -1 1 -1 -0 -0 -1
0 -2 -3 -2 0 -1 1 1 3 2 -1 -1 1 0 -0 -1 1 -0 0 2 2 2 2 1 -2 1 7 5 2 2 5 4 -1 3 1 0 -0 -2 -0 1 -1 -2 -2 -1
-1 0 -1 -1 1 0 -1 -1 1 -1 2 -1 -2 0 -0 -0 -1 -2 -2 -2 -1 3 2 1 -0 0 3 4 5 3 2 1 3 3 1 -1 -1 3 3 -2 -2 -3 -0 2
-1 2 -0 1 -2 -2 4 0 2 0 1 -2 -2 -2 1 3 2 0 0 -2 -1 -2 0 1 1 1 1 3 2 4 4 4 2 1 2 1 3 1 -2 -2 -2 2 0 -1
-3 -1 -5 0 3 -0 -1 -2 -3 -4 -1 -1 -1 -2 -2 -0 0 -1 -1 -1 1 3 0 4 1 2 1 2 3 2 2 2 2 1 -2 -1 -1 -1 -2 -0 2 -2 -2 -1
1 5 4 -4 -4 -2 -2 -2 -1 -2 -2 -1 -1 -0 -0 -1 0 2 -3 -2 0 -1 -2 1 4 3 2 0 0 1 0 0 1 -0 -1 -1 -2 -1 -1 -0 1 -2 -4 -1
-2 -2 -4 -2 -2 -1 1 -1 -1 -3 -2 -2 -2 -1 -2 -2 -1 -1 2 3 1 -1 0 0 3 2 3 5 2 2 2 2 1 1 2 1 0 -1 -1 -1 -1 -1 -3 -1
3 1 4 -0 -0 -2 -4 0 -1 1 2 -2 -2 -1 -1 -0 2 2 -5 -0 -2 0 -2 1 3 4 3 4 2 1 1 0 1 1 1 1 1 1 -1 -1 -2 -1 -1 -1
1 -1 -2 -2 -2 1 5 -2 -7 -1 4 -4 7 3 -2 -6 -6 0 3 -1 2 -1 0 0 1 3 4 7 3 2 1 2 2 2 2 4 3 1 1 -0 -1 -1 -0 2
-4 -1 1 -2 -1 1 -2 -1 -3 -2 -1 3 -4 1 7 2 5 -5 -2 -1 -2 0 -1 1 1 1 3 3 4 1 0 -0 -0 1 1 1 -0 0 0 -0 -0 -1 -1 -0
-1 1 -2 4 2 4 1 -1 1 -2 1 -2 -2 -1 -3 -1 -0 -0 -3 -1 -0 -1 0 -1 -0 2 3 3 2 3 2 2 1 1 1 0 0 -0 -1 -0 1 -0 -1 -0
-1 -1 4 -3 4 3 7 -1 -3 -2 -0 -1 -4 -0 -1 -4 -0 1 -1 -3 -1 -1 -2 -0 0 1 3 3 3 3 3 3 1 -1 -0 0 0 -1 -1 -1 -1 -1 -0 0
Height
1458 1455 1455 1452 1450 1448 1441 1434 1431 1422 1412 1404 1412 1407 1395 1386 1379 1376 1375 1368 1363 1363 1357 1351 1346 1345 1345 1347 1347 1349 1347 1345 1345 1348 1353 1356 1361 1366 1373 1381 1390 1389 1403 1412
1462 1458 1455 1447 1441 1435 1428 1419 1412 1411 1415 1403 1405 1404 1396 1389 1382 1375 1370 1366 1366 1362 1357 1352 1350 1348 1346 1346 1345 1341 1338 1339 1340 1343 1348 1353 1355 1362 1369 1377 1384 1392 1403 1410
1456 1449 1444 1440 1431 1419 1417 1413 1414 1421 1409 1409 1407 1401 1396 1388 1381 1374 1369 1367 1366 1363 1359 1355 1352 1349 1343 1340 1340 1338 1335 1335 1336 1340 1345 1348 1355 1364 1371 1377 1384 1393 1403 1411
1455 1448 1448 1423 1412 1416 1420 1417 1413 1416 1419 1416 1408 1401 1389 1381 1376 1371 1369 1368 1366 1362 1359 1354 1350 1347 1342 1338 1337 1334 1333 1334 1336 1339 1345 1351 1357 1364 1370 1378 1386 1394 1403 1412
1447 1437 1426 1420 1413 1426 1425 1419 1424 1429 1421 1413 1405 1397 1383 1379 1377 1374 1369 1366 1365 1361 1358 1355 1350 1346 1340 1338 1336 1335 1333 1335 1337 1340 1344 1351 1359 1366 1373 1380 1389 1396 1405 1414
1442 1442 1435 1416 1415 1426 1421 1408 1423 1426 1418 1412 1406 1397 1382 1377 1374 1372 1368 1365 1362 1359 1356 1354 1352 1346 1341 1339 1337 1336 1333 1336 1339 1341 1345 1351 1359 1367 1374 1384 1390 1400 1408 1415
1436 1436 1427 1418 1426 1424 1420 1419 1418 1421 1415 1408 1401 1396 1384 1375 1371 1368 1364 1361 1359 1357 1355 1352 1352 1348 1344 1340 1338 1337 1336 1336 1341 1345 1349 1354 1360 1368 1377 1386 1394 1400 1406 1411
1432 1436 1433 1427 1425 1432 1431 1425 1424 1416 1409 1403 1397 1387 1380 1374 1371 1364 1361 1359 1356 1353 1353 1352 1350 1350 1346 1343 1340 1338 1338 1340 1343 1348 1354 1360 1365 1372 1379 1385 1391 1398 1403 1410
1437 1430 1428 1427 1431 1432 1428 1425 1418 1413 1405 1399 1394 1386 1379 1374 1369 1365 1359 1355 1352 1351 1350 1351 1350 1349 1346 1344 1341 1341 1340 1342 1346 1348 1356 1362 1367 1373 1379 1383 1389 1395 1401 1406
1429 1424 1423 1424 1424 1425 1425 1420 1414 1408 1404 1399 1393 1387 1380 1374 1369 1364 1359 1354 1350 1349 1348 1347 1348 1347 1345 1344 1342 1341 1342 1343 1346 1350 1353 1361 1367 1373 1375 1380 1387 1392 1398 1403
1425 1425 1425 1423 1425 1424 1419 1415 1410 1406 1402 1396 1391 1386 1382 1377 1371 1364 1359 1355 1351 1348 1346 1346 1345 1347 1343 1342 1342 1341 1342 1342 1345 1349 1355 1358 1364 1369 1374 1381 1385 1389 1394 1399
1421 1424 1425 1421 1421 1419 1416 1411 1407 1403 1398 1395 1390 1386 1381 1376 1371 1366 1361 1356 1351 1348 1346 1345 1343 1345 1341 1339 1338 1339 1339 1341 1342 1346 1351 1357 1362 1368 1374 1379 1385 1391 1395 1399
1419 1418 1418 1417 1416 1413 1411 1408 1405 1401 1397 1393 1389 1384 1380 1375 1370 1365 1360 1356 1352 1348 1346 1343 1342 1341 1337 1335 1335 1335 1336 1337 1340 1344 1347 1352 1360 1364 1370 1380 1386 1390 1394 1399
1418 1417 1414 1412 1411 1411 1408 1405 1403 1399 1396 1392 1387 1382 1378 1373 1368 1363 1358 1354 1351 1348 1345 1343 1340 1338 1332 1333 1333 1333 1334 1335 1338 1343 1346 1352 1358 1363 1368 1375 1380 1388 1395 1399
1416 1414 1410 1411 1410 1408 1406 1403 1401 1398 1394 1390 1386 1381 1376 1372 1367 1361 1356 1352 1349 1347 1342 1338 1335 1334 1329 1329 1330 1330 1331 1334 1338 1342 1347 1352 1356 1362 1368 1374 1380 1385 1392 1399
1414 1412 1411 1411 1409 1407 1405 1402 1400 1396 1393 1389 1385 1381 1376 1372 1367 1362 1356 1350 1346 1342 1339 1335 1330 1325 1323 1323 1326 1327 1329 1332 1336 1341 1346 1351 1357 1361 1366 1373 1378 1383 1390 1394
1413 1412 1411 1410 1408 1406 1404 1401 1398 1395 1392 1388 1384 1380 1374 1370 1365 1360 1355 1349 1343 1340 1336 1332 1327 1323 1322 1322 1323 1326 1328 1331 1337 1342 1347 1351 1357 1362 1367 1371 1376 1382 1387 1392
1412 1412 1411 1409 1407 1405 1402 1399 1397 1394 1390 1387 1383 1378 1373 1369 1364 1359 1354 1348 1342 1338 1335 1331 1326 1322 1322 1322 1324 1326 1330 1333 1338 1342 1347 1352 1358 1363 1365 1369 1375 1381 1386 1390
1412 1411 1409 1408 1406 1404 1401 1398 1396 1393 1390 1385 1380 1376 1372 1368 1364 1359 1353 1348 1343 1339 1335 1331 1327 1324 1323 1326 1328 1330 1332 1335 1339 1343 1348 1353 1357 1360 1364 1369 1375 1380 1383 1387
1410 1409 1408 1406 1404 1402 1400 1398 1393 1390 1387 1383 1379 1375 1371 1367 1362 1357 1354 1349 1346 1341 1335 1332 1330 1328 1327 1328 1330 1332 1335 1337 1340 1343 1347 1351 1355 1360 1364 1369 1374 1377 1381 1386
1408 1407 1405 1403 1401 1399 1397 1394 1391 1388 1385 1382 1378 1374 1370 1365 1361 1357 1353 1349 1346 1341 1337 1333 1332 1331 1330 1331 1332 1333 1336 1339 1341 1343 1347 1351 1355 1359 1364 1368 1372 1375 1380 1386
1405 1404 1401 1399 1397 1395 1393 1391 1389 1386 1383 1381 1377 1373 1368 1364 1360 1356 1353 1350 1346 1342 1338 1335 1333 1332 1332 1333 1333 1335 1337 1340 1342 1344 1347 1350 1353 1357 1362 1366 1370 1374 1378 1383
1403 1401 1399 1396 1394 1391 1389 1388 1386 1384 1382 1378 1375 1371 1367 1363 1359 1355 1351 1349 1345 1341 1338 1336 1333 1332 1332 1333 1334 1336 1337 1339 1341 1344 1346 1348 1352 1355 1359 1364 1368 1372 1376 1381
1400 1397 1395 1393 1391 1390 1387 1385 1382 1381 1379 1375 1373 1370 1366 1361 1357 1355 1351 1346 1343 1340 1337 1335 1333 1331 1331 1333 1333 1335 1336 1338 1340 1342 1344 1347 1350 1354 1358 1361 1366 1370 1374 1379
1396 1394 1392 1390 1388 1386 1384 1381 1379 1377 1375 1372 1370 1367 1365 1361 1357 1351 1348 1344 1340 1337 1335 1333 1331 1330 1330 1330 1331 1333 1334 1336 1338 1341 1343 1345 1348 1352 1356 1359 1363 1367 1371 1376
1393 1391 1389 1387 1385 1383 1380 1378 1376 1374 1370 1367 1365 1362 1359 1356 1353 1349 1345 1341 1338 1334 1332 1330 1328 1328 1327 1327 1328 1330 1332 1334 1336 1339 1341 1344 1347 1350 1354 1357 1361 1365 1369 1372
1391 1388 1386 1384 1382 1380 1378 1375 1373 1370 1367 1364 1359 1356 1353 1350 1348 1345 1341 1337 1334 1332 1328 1326 1325 1324 1324 1325 1325 1326 1328 1330 1333 1336 1339 1342 1345 1348 1351 1355 1358 1362 1365 1369